FW7769 Weather Reports


time (UTC)temp
C
wind
direction
speed
KPH
gust
KPH
rain 1hr
cm
rain 24hr
cm
rain mn
cm
humidity
%
barometer
mb
20260508121538 18 0 0.0 0.0 0.00 3.15 0.03 69 1012.0
20260508120045 18 0 0.0 0.0 0.00 3.15 0.03 69 1012.2
20260508114541 18 0 0.0 0.0 0.00 3.15 0.03 73 1012.3
20260508113053 17 0 0.0 0.0 0.00 3.15 0.03 77 1012.8
20260508111541 16 0 0.0 0.0 0.00 3.15 0.03 80 1013.0
20260508110038 16 0 0.0 0.0 0.00 3.15 0.03 80 1013.1
20260508104544 16 0 0.0 0.0 0.00 3.15 0.03 87 1013.6
20260508103048 16 0 0.0 0.0 0.00 3.15 0.03 88 1013.6
20260508101543 15 0 0.0 0.0 0.00 3.15 0.03 90 1013.8
20260508100056 15 0 0.0 0.0 0.03 3.15 0.03 92 1013.5
20260508094548 14 0 0.0 0.0 0.03 3.15 0.03 90 1013.1
20260508093039 14 0 0.0 0.0 0.00 3.12 0.00 90 1013.3
20260508091604 14 0 0.0 9.7 0.00 3.12 0.00 90 1013.6
20260508090047 13 0 0.0 9.7 0.00 3.10 0.00 90 1013.5
20260508084547 13 0 0.0 0.0 0.00 3.10 0.00 92 1013.1
20260508083039 13 0 0.0 4.8 0.00 3.10 0.00 91 1012.9
20260508081607 13 0 0.0 0.0 0.00 3.10 0.00 91 1013.1
20260508080048 13 0 0.0 0.0 0.00 3.10 0.00 91 1012.8
20260508074551 13 0 0.0 0.0 0.00 3.10 0.00 92 1012.4
20260508073046 13 0 0.0 0.0 0.00 3.10 0.00 92 1012.1
20260508071548 13 0 0.0 0.0 0.00 3.10 0.00 93 1012.2
20260508070050 13 0 0.0 0.0 0.00 3.10 0.00 93 1012.1
20260508064548 12 0 0.0 0.0 0.00 3.10 0.00 94 1011.9
20260508063057 12 0 0.0 0.0 0.00 3.10 0.00 94 1012.1
20260508061546 12 0 0.0 0.0 0.00 3.10 0.00 94 1012.0
20260508060106 12 0 0.0 0.0 0.00 3.10 0.00 94 1011.6
20260508054633 12 0 0.0 0.0 0.00 3.10 0.00 95 1011.3
20260508053052 12 0 0.0 0.0 0.00 3.10 0.00 95 1011.2
20260508051549 11 0 0.0 0.0 0.00 3.10 0.00 96 1011.4
20260508050050 11 0 0.0 0.0 0.00 3.10 0.00 96 1011.0
20260508044547 11 0 0.0 1.6 0.00 3.10 0.00 97 1011.2
20260508043056 11 0 0.0 1.6 0.00 3.10 0.00 97 1010.9
20260508041545 11 0 0.0 0.0 0.00 3.10 0.00 97 1010.9
20260508040045 11 0 0.0 0.0 0.00 3.10 0.00 97 1010.8
20260508034549 11 0 0.0 0.0 0.00 3.10 0.00 97 1010.5
20260508033040 11 0 0.0 0.0 0.00 3.10 0.00 97 1010.6
20260508031539 11 0 0.0 0.0 0.00 3.10 0.00 97 1010.8
20260508030040 11 0 0.0 1.6 0.00 3.10 0.00 97 1011.2
20260508024554 12 0 0.0 1.6 0.00 3.10 0.00 97 1011.2
20260508023041 12 0 0.0 0.0 0.00 3.10 0.00 97 1011.2
20260508021540 12 0 0.0 0.0 0.00 3.10 0.00 97 1011.2
20260508020038 12 0 0.0 0.0 0.00 3.10 0.00 97 1011.2
20260508014540 12 0 0.0 0.0 0.00 3.10 0.00 97 1011.3
20260508013042 12 0 0.0 0.0 0.00 3.10 0.00 97 1011.4
20260508011542 12 0 0.0 0.0 0.00 3.10 0.00 97 1011.6
20260508010048 12 0 0.0 0.0 0.00 3.10 0.00 97 1011.7
20260508004538 12 0 0.0 0.0 0.00 3.10 0.00 97 1012.0
20260508003043 12 0 0.0 0.0 0.00 3.10 0.00 97 1012.3
20260508001543 12 0 0.0 0.0 0.00 3.10 0.00 97 1012.3
20260508000041 12 0 0.0 0.0 0.00 3.10 0.00 97 1012.5
20260507234542 12 0 0.0 0.0 0.00 3.10 0.00 97 1012.7
20260507233037 12 0 0.0 0.0 0.00 3.10 0.00 97 1012.5
20260507231546 12 0 0.0 0.0 0.00 3.10 0.00 97 1012.8
20260507230042 12 0 0.0 0.0 0.00 3.10 0.00 97 1012.9
20260507224540 12 0 0.0 0.0 0.00 3.10 0.00 97 1013.0
20260507223048 12 0 0.0 0.0 0.00 3.10 0.00 97 1012.8
20260507221544 12 0 0.0 0.0 0.00 3.10 0.00 97 1012.8
20260507220042 13 0 0.0 0.0 0.00 3.10 0.00 97 1012.5
20260507214545 13 0 0.0 0.0 0.00 3.10 3.10 97 1012.3
20260507213048 13 0 0.0 0.0 0.00 3.10 3.10 97 1012.5
20260507211542 13 0 0.0 0.0 0.00 3.10 3.10 97 1012.2
20260507210039 13 0 0.0 0.0 0.00 3.10 3.10 97 1012.2
20260507204538 13 0 0.0 0.0 0.00 3.10 3.10 97 1012.2
20260507203046 13 0 0.0 0.0 0.00 3.10 3.10 97 1012.1
20260507201543 13 0 0.0 0.0 0.00 3.10 3.10 97 1012.2
20260507200040 13 0 0.0 0.0 0.00 3.10 3.10 96 1012.1
20260507194548 13 0 0.0 0.0 0.00 3.10 3.10 96 1011.7
20260507193042 14 0 0.0 0.0 0.00 3.10 3.10 96 1011.4
20260507191542 14 0 0.0 0.0 0.00 3.10 3.10 96 1011.2
20260507190040 13 0 0.0 0.0 0.00 3.10 3.10 96 1011.0
20260507184538 14 0 0.0 0.0 0.05 3.10 3.10 96 1010.8
20260507183046 14 0 0.0 0.0 0.28 3.10 3.10 96 1010.6
20260507181541 15 0 0.0 0.0 1.30 3.10 3.10 96 1010.4
20260507180052 14 0 0.0 0.0 2.44 3.10 3.10 96 1010.3
20260507174542 14 0 0.0 4.8 3.00 3.02 3.02 96 1010.4
20260507173045 14 0 0.0 4.8 2.72 2.77 2.77 95 1010.6
20260507171548 15 0 0.0 1.6 1.68 1.73 1.73 95 1010.6
20260507170037 16 0 0.0 8.0 0.56 0.61 0.61 90 1010.4
20260507164548 18 0 0.0 0.0 0.00 0.03 0.03 78 1010.1
20260507163048 17 0 0.0 1.6 0.00 0.03 0.03 81 1009.8
20260507161550 17 0 0.0 0.0 0.00 0.03 0.03 82 1009.4
20260507160053 17 0 0.0 0.0 0.00 0.03 0.03 83 1009.4
20260507154538 17 0 0.0 1.6 0.00 0.03 0.03 84 1009.6
20260507153053 18 0 0.0 0.0 0.00 0.03 0.03 86 1009.7
20260507151544 17 0 0.0 0.0 0.00 0.00 0.00 84 1009.7
20260507150043 18 0 0.0 0.0 0.00 0.00 0.00 85 1009.7
20260507144539 18 0 0.0 0.0 0.00 0.00 0.00 84 1009.5
20260507143042 17 0 0.0 0.0 0.00 0.00 0.00 85 1009.4
20260507141543 17 0 0.0 0.0 0.00 0.00 0.00 86 1009.3
20260507140055 17 0 0.0 1.6 0.00 0.00 0.00 83 1009.3
20260507134542 18 0 0.0 11.3 0.00 0.00 0.00 82 1009.5
20260507133040 18 112 0.0 3.2 0.00 0.00 0.00 80 1009.6
20260507131539 19 0 0.0 6.4 0.00 0.00 0.00 77 1009.5
20260507130050 20 105 0.0 9.7 0.00 0.00 0.00 70 1009.7
20260507124555 21 0 0.0 16.1 0.00 0.00 0.00 67 1009.7
20260507123043 21 91 0.0 9.7 0.00 0.00 0.00 67 1009.8